N350PE KBUF-KPHL

Flight info

Callsign N350PE
Flight time 1h 11m
Altitude 26000
Route VAIRS PSB BUNTS3
Aircraft B350/L-SDFG/S

Departure

Time 2026-05-06 18:05
Airport Buffalo Niagara International Airport (KBUF)

Arrival

Time 2026-05-06 19:16
Airport Philadelphia International Airport (KPHL)
Time Latitude Longitude Altitude Speed Heading
2026-05-06 17:48 42.93905 -78.74145 717 ft 0 kts 267°
2026-05-06 18:02 42.93905 -78.74152 717 ft 5 kts 253°
2026-05-06 18:02 42.93888 -78.74108 718 ft 11 kts 82°
2026-05-06 18:02 42.93892 -78.74000 718 ft 12 kts 88°
2026-05-06 18:02 42.93894 -78.73891 718 ft 11 kts 92°
2026-05-06 18:03 42.93842 -78.73838 718 ft 11 kts 178°
2026-05-06 18:03 42.93778 -78.73801 718 ft 10 kts 120°
2026-05-06 18:03 42.93743 -78.73712 720 ft 11 kts 118°
2026-05-06 18:03 42.93703 -78.73612 720 ft 13 kts 118°
2026-05-06 18:04 42.93668 -78.73523 723 ft 8 kts 121°
2026-05-06 18:04 42.93657 -78.73466 721 ft 0 kts 44°
2026-05-06 18:04 42.93732 -78.73367 724 ft 53 kts 44°
2026-05-06 18:05 42.94194 -78.72761 725 ft 122 kts 44°
2026-05-06 18:05 42.94896 -78.71853 883 ft 157 kts 43°
2026-05-06 18:05 42.95710 -78.70798 1370 ft 162 kts 43°
2026-05-06 18:05 42.96530 -78.69707 1919 ft 168 kts 43°
2026-05-06 18:06 42.97358 -78.68566 2498 ft 170 kts 44°
2026-05-06 18:06 42.98187 -78.67412 3091 ft 171 kts 43°
2026-05-06 18:06 42.99013 -78.66239 3675 ft 171 kts 45°
2026-05-06 18:06 42.99471 -78.64723 4310 ft 176 kts 91°
2026-05-06 18:07 42.99044 -78.63207 4953 ft 178 kts 128°
2026-05-06 18:07 42.98291 -78.61846 5592 ft 182 kts 129°
2026-05-06 18:07 42.97533 -78.60438 6243 ft 186 kts 130°
2026-05-06 18:07 42.96584 -78.59327 6851 ft 176 kts 169°
2026-05-06 18:08 42.95442 -78.59387 7400 ft 163 kts 207°
2026-05-06 18:08 42.94368 -78.59899 7937 ft 166 kts 198°
2026-05-06 18:08 42.93204 -78.60044 8508 ft 169 kts 191°
2026-05-06 18:08 42.92027 -78.60096 9084 ft 169 kts 191°
2026-05-06 18:09 42.90852 -78.60137 9672 ft 169 kts 191°
2026-05-06 18:09 42.89677 -78.60178 10196 ft 169 kts 192°
2026-05-06 18:09 42.88504 -78.60218 10692 ft 169 kts 192°
2026-05-06 18:09 42.87328 -78.60260 11207 ft 169 kts 192°
2026-05-06 18:10 42.86152 -78.60301 11721 ft 169 kts 193°
2026-05-06 18:10 42.84973 -78.60343 12212 ft 170 kts 193°
2026-05-06 18:10 42.83787 -78.60384 12727 ft 170 kts 193°
2026-05-06 18:10 42.82602 -78.60425 13244 ft 171 kts 193°
2026-05-06 18:11 42.81414 -78.60467 13747 ft 171 kts 194°
2026-05-06 18:11 42.80220 -78.60508 14218 ft 172 kts 194°
2026-05-06 18:11 42.79017 -78.60551 14694 ft 174 kts 193°
2026-05-06 18:11 42.77814 -78.60594 15154 ft 176 kts 193°
2026-05-06 18:12 42.76581 -78.60638 15613 ft 179 kts 193°
2026-05-06 18:12 42.75325 -78.60681 16085 ft 182 kts 193°
2026-05-06 18:12 42.74055 -78.60726 16547 ft 184 kts 193°
2026-05-06 18:12 42.72765 -78.60769 16982 ft 186 kts 192°
2026-05-06 18:13 42.71466 -78.60815 17419 ft 188 kts 192°
2026-05-06 18:13 42.70151 -78.60861 17859 ft 190 kts 192°
2026-05-06 18:13 42.68828 -78.60907 18279 ft 192 kts 192°
2026-05-06 18:13 42.67485 -78.60954 18660 ft 194 kts 192°
2026-05-06 18:14 42.66133 -78.61000 19038 ft 195 kts 193°
2026-05-06 18:14 42.64772 -78.61047 19401 ft 196 kts 193°
2026-05-06 18:14 42.63400 -78.61095 19768 ft 198 kts 193°
2026-05-06 18:14 42.62019 -78.61143 20150 ft 199 kts 193°
2026-05-06 18:15 42.60631 -78.61191 20509 ft 200 kts 193°
2026-05-06 18:15 42.59232 -78.61240 20882 ft 201 kts 193°
2026-05-06 18:15 42.57828 -78.61288 21255 ft 203 kts 193°
2026-05-06 18:15 42.56414 -78.61337 21619 ft 204 kts 194°
2026-05-06 18:16 42.54991 -78.61387 21979 ft 205 kts 194°
2026-05-06 18:16 42.53560 -78.61436 22328 ft 206 kts 194°
2026-05-06 18:16 42.52119 -78.61486 22689 ft 208 kts 194°
2026-05-06 18:16 42.50670 -78.61537 23053 ft 209 kts 194°
2026-05-06 18:17 42.49209 -78.61587 23425 ft 211 kts 194°
2026-05-06 18:17 42.47742 -78.61636 23741 ft 211 kts 195°
2026-05-06 18:17 42.46271 -78.61688 24050 ft 212 kts 195°
2026-05-06 18:17 42.44797 -78.61739 24314 ft 212 kts 195°
2026-05-06 18:18 42.43316 -78.61789 24598 ft 213 kts 196°
2026-05-06 18:18 42.41837 -78.61840 24865 ft 215 kts 197°
2026-05-06 18:18 42.40306 -78.61904 24875 ft 226 kts 196°
2026-05-06 18:18 42.38700 -78.61963 24879 ft 235 kts 195°
2026-05-06 18:19 42.37036 -78.62018 24883 ft 243 kts 195°
2026-05-06 18:19 42.35318 -78.62073 24884 ft 249 kts 194°
2026-05-06 18:19 42.33569 -78.62131 24884 ft 254 kts 194°
2026-05-06 18:19 42.31783 -78.62193 24883 ft 259 kts 194°
2026-05-06 18:20 42.29968 -78.62255 24884 ft 263 kts 194°
2026-05-06 18:20 42.28128 -78.62316 24881 ft 265 kts 194°
2026-05-06 18:20 42.26281 -78.62378 24886 ft 267 kts 194°
2026-05-06 18:20 42.24418 -78.62442 24885 ft 268 kts 194°
2026-05-06 18:21 42.22543 -78.62506 24885 ft 270 kts 194°
2026-05-06 18:21 42.20659 -78.62571 24882 ft 272 kts 194°
2026-05-06 18:21 42.18768 -78.62636 24883 ft 272 kts 194°
2026-05-06 18:21 42.16870 -78.62701 24870 ft 273 kts 194°
2026-05-06 18:22 42.14956 -78.62684 24878 ft 281 kts 186°
2026-05-06 18:22 42.12999 -78.62064 24866 ft 297 kts 173°
2026-05-06 18:22 42.11096 -78.60991 24872 ft 303 kts 168°
2026-05-06 18:22 42.09171 -78.59852 24872 ft 300 kts 170°
2026-05-06 18:23 42.07230 -78.58841 24873 ft 298 kts 172°
2026-05-06 18:23 42.05284 -78.57864 24872 ft 299 kts 172°
2026-05-06 18:23 42.03343 -78.56843 24859 ft 300 kts 171°
2026-05-06 18:23 42.01402 -78.55810 24861 ft 300 kts 172°
2026-05-06 18:24 41.99454 -78.54791 24866 ft 301 kts 172°
2026-05-06 18:24 41.97504 -78.53773 24869 ft 301 kts 172°
2026-05-06 18:24 41.95552 -78.52749 24866 ft 301 kts 172°
2026-05-06 18:24 41.93605 -78.51728 24869 ft 300 kts 172°
2026-05-06 18:25 41.91661 -78.50712 24872 ft 300 kts 172°
2026-05-06 18:25 41.89714 -78.49696 24872 ft 300 kts 172°
2026-05-06 18:25 41.87776 -78.48679 24876 ft 299 kts 172°
2026-05-06 18:25 41.85834 -78.47671 24870 ft 299 kts 172°
2026-05-06 18:26 41.83895 -78.46659 24874 ft 299 kts 172°
2026-05-06 18:26 41.81954 -78.45646 24849 ft 300 kts 172°
2026-05-06 18:26 41.80003 -78.44633 24865 ft 303 kts 173°
2026-05-06 18:26 41.78024 -78.43605 24863 ft 306 kts 173°
2026-05-06 18:27 41.76037 -78.42571 24862 ft 308 kts 172°
2026-05-06 18:27 41.74033 -78.41525 24862 ft 310 kts 172°
2026-05-06 18:27 41.72017 -78.40478 24864 ft 312 kts 172°
2026-05-06 18:27 41.69990 -78.39426 24862 ft 313 kts 172°
2026-05-06 18:28 41.67954 -78.38371 24866 ft 314 kts 172°
2026-05-06 18:28 41.65915 -78.37313 24863 ft 315 kts 172°
2026-05-06 18:28 41.63862 -78.36248 24861 ft 316 kts 172°
2026-05-06 18:28 41.61815 -78.35186 24854 ft 316 kts 172°
2026-05-06 18:29 41.59758 -78.34123 24835 ft 316 kts 173°
2026-05-06 18:29 41.57705 -78.33062 24843 ft 317 kts 173°
2026-05-06 18:29 41.55648 -78.31999 24839 ft 318 kts 173°
2026-05-06 18:29 41.53585 -78.30934 24837 ft 318 kts 173°
2026-05-06 18:30 41.51522 -78.29868 24829 ft 318 kts 173°
2026-05-06 18:30 41.49458 -78.28804 24832 ft 318 kts 173°
2026-05-06 18:30 41.47395 -78.27740 24833 ft 318 kts 173°
2026-05-06 18:30 41.45331 -78.26679 24831 ft 318 kts 173°
2026-05-06 18:31 41.43268 -78.25616 24838 ft 318 kts 173°
2026-05-06 18:31 41.41203 -78.24555 24831 ft 318 kts 173°
2026-05-06 18:31 41.39137 -78.23493 24830 ft 318 kts 173°
2026-05-06 18:31 41.37073 -78.22431 24818 ft 318 kts 174°
2026-05-06 18:32 41.35003 -78.21373 24822 ft 320 kts 174°
2026-05-06 18:32 41.32921 -78.20307 24816 ft 321 kts 174°
2026-05-06 18:32 41.30832 -78.19232 24820 ft 322 kts 174°
2026-05-06 18:32 41.28744 -78.18161 24817 ft 322 kts 174°
2026-05-06 18:33 41.26659 -78.17094 24825 ft 321 kts 174°
2026-05-06 18:33 41.24576 -78.16030 24827 ft 321 kts 174°
2026-05-06 18:33 41.22496 -78.14967 24829 ft 320 kts 174°
2026-05-06 18:33 41.20417 -78.13906 24832 ft 321 kts 174°
2026-05-06 18:34 41.18333 -78.12842 24831 ft 321 kts 174°
2026-05-06 18:34 41.16244 -78.11776 24830 ft 321 kts 174°
2026-05-06 18:34 41.14166 -78.10714 24832 ft 319 kts 175°
2026-05-06 18:34 41.12789 -78.10014 24827 ft 320 kts 175°
2026-05-06 18:35 41.10039 -78.08618 24829 ft 320 kts 175°
2026-05-06 18:35 41.07955 -78.07557 24828 ft 321 kts 175°
2026-05-06 18:35 41.05873 -78.06495 24827 ft 321 kts 175°
2026-05-06 18:35 41.03761 -78.05424 24825 ft 321 kts 175°
2026-05-06 18:36 41.02376 -78.04724 24823 ft 321 kts 175°
2026-05-06 18:36 40.99624 -78.03320 24827 ft 320 kts 175°
2026-05-06 18:36 40.98220 -78.02610 24829 ft 319 kts 176°
2026-05-06 18:36 40.95468 -78.01221 24832 ft 320 kts 175°
2026-05-06 18:37 40.93389 -78.00156 24805 ft 323 kts 173°
2026-05-06 18:37 40.92006 -77.99225 24835 ft 336 kts 164°
2026-05-06 18:37 40.89526 -77.96533 24838 ft 362 kts 146°
2026-05-06 18:37 40.87908 -77.93918 24833 ft 371 kts 139°
2026-05-06 18:38 40.86863 -77.92069 24834 ft 371 kts 139°
2026-05-06 18:38 40.85264 -77.89417 24835 ft 366 kts 144°
2026-05-06 18:38 40.83562 -77.86943 24837 ft 363 kts 146°
2026-05-06 18:38 40.81858 -77.84470 24837 ft 365 kts 144°
2026-05-06 18:39 40.80230 -77.81959 24837 ft 367 kts 143°
2026-05-06 18:39 40.78551 -77.79354 24815 ft 366 kts 144°
2026-05-06 18:39 40.76876 -77.76825 24827 ft 366 kts 144°
2026-05-06 18:40 40.73524 -77.71786 24614 ft 373 kts 144°
2026-05-06 18:40 40.71809 -77.69187 24408 ft 378 kts 143°
2026-05-06 18:40 40.70079 -77.66560 24198 ft 381 kts 143°
2026-05-06 18:40 40.68335 -77.63927 23992 ft 382 kts 143°
2026-05-06 18:41 40.66582 -77.61289 23725 ft 383 kts 143°
2026-05-06 18:41 40.64825 -77.58642 23484 ft 384 kts 143°
2026-05-06 18:41 40.63071 -77.55993 23242 ft 384 kts 143°
2026-05-06 18:41 40.61310 -77.53349 22975 ft 384 kts 143°
2026-05-06 18:42 40.59549 -77.50705 22705 ft 384 kts 143°
2026-05-06 18:42 40.57791 -77.48059 22439 ft 383 kts 142°
2026-05-06 18:42 40.56036 -77.45424 22182 ft 382 kts 142°
2026-05-06 18:42 40.54285 -77.42804 21924 ft 381 kts 142°
2026-05-06 18:43 40.52541 -77.40193 21671 ft 380 kts 142°
2026-05-06 18:43 40.50794 -77.37576 21416 ft 380 kts 141°
2026-05-06 18:43 40.49057 -77.34980 21174 ft 378 kts 141°
2026-05-06 18:43 40.47322 -77.32388 20916 ft 377 kts 141°
2026-05-06 18:44 40.45593 -77.29801 20671 ft 376 kts 141°
2026-05-06 18:44 40.43870 -77.27235 20425 ft 374 kts 141°
2026-05-06 18:44 40.42149 -77.24679 20159 ft 372 kts 140°
2026-05-06 18:44 40.40447 -77.22137 19906 ft 369 kts 140°
2026-05-06 18:45 40.38755 -77.19614 19665 ft 367 kts 140°
2026-05-06 18:45 40.37073 -77.17119 19436 ft 364 kts 140°
2026-05-06 18:45 40.35397 -77.14633 19198 ft 362 kts 140°
2026-05-06 18:45 40.33737 -77.12169 18964 ft 360 kts 140°
2026-05-06 18:46 40.32082 -77.09715 18727 ft 358 kts 139°
2026-05-06 18:46 40.30550 -77.07112 18492 ft 364 kts 128°
2026-05-06 18:46 40.29443 -77.04120 18262 ft 368 kts 114°
2026-05-06 18:46 40.28727 -77.00913 18019 ft 366 kts 108°
2026-05-06 18:47 40.28120 -76.97690 17753 ft 362 kts 109°
2026-05-06 18:47 40.27409 -76.94557 17512 ft 357 kts 113°
2026-05-06 18:47 40.26631 -76.91487 17288 ft 354 kts 112°
2026-05-06 18:47 40.25887 -76.88293 17052 ft 353 kts 111°
2026-05-06 18:48 40.25226 -76.85323 16817 ft 352 kts 112°
2026-05-06 18:48 40.24515 -76.82271 16592 ft 350 kts 112°
2026-05-06 18:48 40.23797 -76.79234 16361 ft 348 kts 112°
2026-05-06 18:48 40.23092 -76.76206 16136 ft 347 kts 112°
2026-05-06 18:49 40.22391 -76.73185 15911 ft 346 kts 112°
2026-05-06 18:49 40.21686 -76.70180 15690 ft 345 kts 112°
2026-05-06 18:49 40.20982 -76.67182 15469 ft 344 kts 112°
2026-05-06 18:49 40.20283 -76.64196 15248 ft 343 kts 112°
2026-05-06 18:50 40.19596 -76.61251 15034 ft 342 kts 112°
2026-05-06 18:50 40.18897 -76.58290 14819 ft 341 kts 112°
2026-05-06 18:50 40.18199 -76.55331 14607 ft 340 kts 112°
2026-05-06 18:50 40.17507 -76.52382 14384 ft 339 kts 112°
2026-05-06 18:51 40.16813 -76.49439 14188 ft 338 kts 113°
2026-05-06 18:51 40.16119 -76.46509 13978 ft 337 kts 113°
2026-05-06 18:51 40.15428 -76.43589 13769 ft 336 kts 113°
2026-05-06 18:51 40.14792 -76.40908 13571 ft 335 kts 113°
2026-05-06 18:52 40.14050 -76.37772 13318 ft 334 kts 113°
2026-05-06 18:52 40.13362 -76.34877 13084 ft 333 kts 113°
2026-05-06 18:52 40.12682 -76.32011 12986 ft 327 kts 113°
2026-05-06 18:52 40.12044 -76.29181 12967 ft 324 kts 109°
2026-05-06 18:53 40.11737 -76.26229 12712 ft 331 kts 99°
2026-05-06 18:53 40.11597 -76.23219 12431 ft 332 kts 98°
2026-05-06 18:53 40.11417 -76.20216 12153 ft 331 kts 100°
2026-05-06 18:53 40.11185 -76.17223 11879 ft 331 kts 100°
2026-05-06 18:54 40.10976 -76.14224 11598 ft 331 kts 99°
2026-05-06 18:54 40.10781 -76.11224 11327 ft 331 kts 99°
2026-05-06 18:54 40.10574 -76.08235 11058 ft 330 kts 99°
2026-05-06 18:54 40.10366 -76.05251 10798 ft 329 kts 99°
2026-05-06 18:55 40.10159 -76.02291 10530 ft 327 kts 99°
2026-05-06 18:55 40.09956 -75.99343 10268 ft 325 kts 100°
2026-05-06 18:55 40.09749 -75.96421 10010 ft 323 kts 99°
2026-05-06 18:55 40.09547 -75.93503 9751 ft 322 kts 100°
2026-05-06 18:56 40.09344 -75.90627 9476 ft 321 kts 100°
2026-05-06 18:56 40.09135 -75.87729 9190 ft 319 kts 99°
2026-05-06 18:56 40.08936 -75.84861 8906 ft 315 kts 99°
2026-05-06 18:56 40.08735 -75.82022 8626 ft 313 kts 99°
2026-05-06 18:57 40.08533 -75.79198 8347 ft 311 kts 99°
2026-05-06 18:57 40.08327 -75.76392 8056 ft 310 kts 99°
2026-05-06 18:57 40.08132 -75.73619 7990 ft 302 kts 99°
2026-05-06 18:57 40.07930 -75.70919 7987 ft 296 kts 99°
2026-05-06 18:58 40.07728 -75.68258 8003 ft 293 kts 99°
2026-05-06 18:58 40.07537 -75.65611 8001 ft 292 kts 100°
2026-05-06 18:58 40.07365 -75.62971 7992 ft 290 kts 99°
2026-05-06 18:58 40.07186 -75.60333 7752 ft 295 kts 99°
2026-05-06 18:59 40.06988 -75.57646 7435 ft 300 kts 99°
2026-05-06 18:59 40.06773 -75.54922 7119 ft 302 kts 99°
2026-05-06 18:59 40.06524 -75.51938 6774 ft 301 kts 99°
2026-05-06 18:59 40.06315 -75.49485 6499 ft 300 kts 99°
2026-05-06 19:00 40.06077 -75.46793 6184 ft 298 kts 99°
2026-05-06 19:00 40.05835 -75.44100 5998 ft 290 kts 99°
2026-05-06 19:00 40.05608 -75.41607 5991 ft 279 kts 100°
2026-05-06 19:00 40.05414 -75.39123 5987 ft 271 kts 99°
2026-05-06 19:01 40.05242 -75.36716 5989 ft 264 kts 99°
2026-05-06 19:01 40.05073 -75.34346 5986 ft 261 kts 99°
2026-05-06 19:01 40.04911 -75.31987 5977 ft 261 kts 99°
2026-05-06 19:01 40.04755 -75.29620 5974 ft 264 kts 99°
2026-05-06 19:02 40.04605 -75.27215 5973 ft 266 kts 99°
2026-05-06 19:02 40.04455 -75.24811 5979 ft 266 kts 100°
2026-05-06 19:02 40.04251 -75.22406 5979 ft 268 kts 101°
2026-05-06 19:02 40.04024 -75.19984 5985 ft 266 kts 101°
2026-05-06 19:03 40.03791 -75.17575 5766 ft 269 kts 101°
2026-05-06 19:03 40.03555 -75.15160 5525 ft 269 kts 101°
2026-05-06 19:03 40.03317 -75.12762 5364 ft 263 kts 101°
2026-05-06 19:03 40.03063 -75.10391 5022 ft 265 kts 101°
2026-05-06 19:04 40.02820 -75.08016 4768 ft 263 kts 101°
2026-05-06 19:04 40.02572 -75.05650 4471 ft 262 kts 102°
2026-05-06 19:04 40.02330 -75.03284 4168 ft 264 kts 101°
2026-05-06 19:04 40.02112 -75.00928 3993 ft 258 kts 102°
2026-05-06 19:05 40.01941 -74.98680 3980 ft 241 kts 101°
2026-05-06 19:05 40.01805 -74.96566 3969 ft 228 kts 101°
2026-05-06 19:05 40.01684 -74.94532 3969 ft 223 kts 101°
2026-05-06 19:05 40.01561 -74.92523 3970 ft 221 kts 101°
2026-05-06 19:06 40.01437 -74.90538 3970 ft 218 kts 101°
2026-05-06 19:06 40.01310 -74.88562 3972 ft 219 kts 101°
2026-05-06 19:06 40.01180 -74.86581 3971 ft 220 kts 101°
2026-05-06 19:06 40.00934 -74.84633 3977 ft 213 kts 122°
2026-05-06 19:07 40.00077 -74.83222 4016 ft 189 kts 160°
2026-05-06 19:07 39.98909 -74.82899 4063 ft 162 kts 201°
2026-05-06 19:07 39.97880 -74.83427 3834 ft 157 kts 213°
2026-05-06 19:07 39.96922 -74.84087 3584 ft 154 kts 214°
2026-05-06 19:08 39.95997 -74.84755 3342 ft 152 kts 217°
2026-05-06 19:08 39.95408 -74.85845 3119 ft 153 kts 256°
2026-05-06 19:08 39.95534 -74.87250 2986 ft 156 kts 274°
2026-05-06 19:08 39.95795 -74.88581 2981 ft 147 kts 275°
2026-05-06 19:09 39.95785 -74.89793 2984 ft 126 kts 238°
2026-05-06 19:09 39.95349 -74.90745 2981 ft 122 kts 245°
2026-05-06 19:09 39.95068 -74.91799 2975 ft 124 kts 246°
2026-05-06 19:09 39.94792 -74.92879 2974 ft 128 kts 247°
2026-05-06 19:10 39.94534 -74.93999 2973 ft 130 kts 248°
2026-05-06 19:10 39.94273 -74.95114 2973 ft 131 kts 248°
2026-05-06 19:10 39.94007 -74.96244 2973 ft 132 kts 248°
2026-05-06 19:10 39.93738 -74.97391 2972 ft 133 kts 248°
2026-05-06 19:11 39.93469 -74.98538 2972 ft 132 kts 248°
2026-05-06 19:11 39.93197 -74.99691 2977 ft 134 kts 248°
2026-05-06 19:11 39.92924 -75.00857 2974 ft 134 kts 249°
2026-05-06 19:11 39.92658 -75.02007 2977 ft 131 kts 249°
2026-05-06 19:12 39.92394 -75.03131 2972 ft 130 kts 249°
2026-05-06 19:12 39.92140 -75.04215 2832 ft 123 kts 248°
2026-05-06 19:12 39.91891 -75.05280 2662 ft 123 kts 248°
2026-05-06 19:12 39.91642 -75.06341 2500 ft 123 kts 248°
2026-05-06 19:13 39.91385 -75.07432 2324 ft 129 kts 248°
2026-05-06 19:13 39.91118 -75.08573 2139 ft 133 kts 249°
2026-05-06 19:13 39.90850 -75.09718 1954 ft 131 kts 248°
2026-05-06 19:13 39.90582 -75.10852 1772 ft 130 kts 249°
2026-05-06 19:14 39.90324 -75.11976 1590 ft 129 kts 248°
2026-05-06 19:14 39.90063 -75.13084 1410 ft 126 kts 249°
2026-05-06 19:14 39.89814 -75.14151 1234 ft 120 kts 249°
2026-05-06 19:14 39.89573 -75.15173 1071 ft 118 kts 248°
2026-05-06 19:15 39.89333 -75.16199 904 ft 120 kts 248°
2026-05-06 19:15 39.89086 -75.17248 734 ft 121 kts 249°
2026-05-06 19:15 39.88835 -75.18300 574 ft 122 kts 251°
2026-05-06 19:15 39.88578 -75.19334 352 ft 117 kts 251°
2026-05-06 19:16 39.88366 -75.20345 182 ft 117 kts 252°
2026-05-06 19:16 39.88171 -75.21338 44 ft 110 kts 249°
2026-05-06 19:16 39.88004 -75.22134 13 ft 53 kts 255°
2026-05-06 19:16 39.87952 -75.22453 10 ft 32 kts 267°
2026-05-06 19:17 39.87974 -75.22654 12 ft 14 kts 285°
2026-05-06 19:17 39.87983 -75.22693 13 ft 0 kts 298°
2026-05-06 19:18 39.87983 -75.22695 13 ft 2 kts 302°
2026-05-06 19:18 39.88032 -75.22721 14 ft 9 kts 355°
2026-05-06 19:18 39.88075 -75.22656 15 ft 11 kts 66°
2026-05-06 19:18 39.88116 -75.22567 15 ft 11 kts 40°
2026-05-06 19:19 39.88139 -75.22561 16 ft 0 kts 332°